Tracking 27126 objects as of 31-Mar-2023
HD Live streaming from Space Station
objects crossing your sky now

INTELSAT 3-F8

Track INTELSAT 3-F8 now!
INTELSAT 3-F8 is classified as:


NORAD ID: 4478
Int'l Code: 1970-055A
Perigee: 33,922.7 km
Apogee: 36,566.1 km
Inclination: 2.6 °
Period: 1,408.1 minutes
Semi major axis: 41615 km
RCS: 2.5127 m2 (large)
Launch date: July 23, 1970
Source: International Telecommunications Satellite Organization (ITSO)
Launch site: AIR FORCE EASTERN TEST RANGE (AFETR)
Your satellite tracking list
Your tracking list is empty




NASA's NSSDC Master Catalog

Two Line Element Set (TLE):
1 04478U 70055A   23088.82778468 -.00000009  00000-0  00000-0 0  9991
2 04478   2.5625  80.0088 0317598  80.4967 159.7923  1.02263651110808
Source of the keplerian elements: AFSPC